Starlink 30223

operational
NORAD ID: 57603 Int'l Des: 2023-119 Owner: SPXS Country: US Constellation: starlink
LEOCIRCULAR

Über Starlink 30223

Beschreibung wird geladen...

Live-Position

3D-Globus wird geladen...

Nächste Überflüge

Höhenverlauf

Altitude vs Time

uPlot chart will show altitude changes over time

Zweizeiliger Elementsatz

1 57603U 23119B 26034.97867190 -.00000208 00000-0 -33021-6 0 9996
2 57603 43.0029 264.8869 0001127 271.3094 88.7619 15.02534453138004
Epoch: 3. Feb. 2026 • Age: 10 hours

Aktueller Status

Höhe 561.2 km
Geschwindigkeit 7.59 km/s
Subsatellitenpunkt 35.00°N, 36.71°E
Startdatum 11. Aug. 2023
Alter 2.4 years
Typ internet

Technische Details

Klassifizierung Payload
Masse 730.00 kg
Trockenmasse 700.00 kg
Gesamtmasse 730.00 kg
Länge 0.30 m
Durchmesser 4.10 m
Spannweite 29.00 m
Form Box + pan
Hersteller SPXS
Bus-Typ Starlink V2M
Phasenstatus In Orbit
Besitzer/Staat SPXS/US

Große Konstellationen

Loading constellations...